FW6259 Weather Reports


Display with metric or nautical units.
time (UTC)temp
F
wind
direction
speed
MPH
gust
MPH
rain 1hr
in
rain 24hr
in
rain mn
in
humidity
%
barometer
mb
20260503044615 44 195 8.0 15.0 0.00 0.01 0.01 54 1021.5
20260503043056 45 156 7.0 18.0 0.00 0.01 0.01 53 1021.4
20260503041608 46 199 9.0 20.0 0.00 0.01 0.01 52 1020.9
20260503040059 46 169 11.0 22.0 0.00 0.01 0.01 51 1020.9
20260503034554 46 121 9.0 28.0 0.00 0.01 0.01 51 1020.7
20260503033104 46 228 11.0 19.0 0.00 0.01 0.01 49 1020.6
20260503031545 47 163 9.0 20.0 0.00 0.01 0.01 48 1020.5
20260503030105 48 193 14.0 24.0 0.00 0.01 0.01 47 1020.6
20260503024601 49 166 11.0 26.0 0.00 0.01 0.01 47 1020.4
20260503023051 49 235 11.0 24.0 0.00 0.01 0.01 42 1020.1
20260503021551 49 205 8.0 24.0 0.00 0.01 0.01 44 1020.1
20260503014551 49 143 11.0 25.0 0.00 0.01 0.01 42 1020.1
20260503013043 49 198 10.0 28.0 0.00 0.01 0.01 42 1019.7
20260503011606 50 181 7.0 27.0 0.00 0.01 0.01 43 1019.6
20260503010048 48 231 12.0 23.0 0.00 0.01 0.01 43 1019.5
20260503004550 47 148 12.0 27.0 0.00 0.01 0.01 45 1019.4
20260503003102 48 136 11.0 24.0 0.00 0.01 0.01 43 1019.3
20260503001558 48 145 10.0 20.0 0.00 0.01 0.01 44 1019.2
20260503000048 50 124 9.0 24.0 0.00 0.01 0.01 43 1019.0
20260502234558 50 163 9.0 22.0 0.00 0.01 0.01 43 1019.1
20260502233048 50 271 7.0 22.0 0.00 0.01 0.01 42 1019.0
20260502231501 50 191 12.0 21.0 0.00 0.01 0.01 41 1018.8
20260502230052 50 152 8.0 18.0 0.00 0.01 0.01 42 1018.8
20260502224554 50 180 13.0 21.0 0.00 0.01 0.01 42 1018.7
20260502223101 47 161 9.0 25.0 0.00 0.01 0.01 44 1018.3
20260502221554 49 233 9.0 23.0 0.00 0.01 0.01 45 1018.3
20260502220119 50 91 11.0 21.0 0.00 0.01 0.01 42 1018.2
20260502214502 51 229 8.0 17.0 0.00 0.01 0.01 43 1017.8
20260502213056 49 159 13.0 28.0 0.00 0.01 0.01 44 1017.7
20260502211552 49 179 11.0 33.0 0.00 0.01 0.01 44 1017.6
20260502210111 49 225 11.0 24.0 0.00 0.01 0.01 44 1017.5
20260502204607 49 185 10.0 22.0 0.00 0.01 0.01 46 1017.5
20260502203103 49 184 7.0 24.0 0.00 0.01 0.01 45 1017.1
20260502201549 49 199 9.0 28.0 0.00 0.01 0.01 46 1017.1
20260502200001 49 172 8.0 27.0 0.00 0.01 0.01 48 1016.7
20260502194556 48 160 15.0 27.0 0.00 0.01 0.01 49 1016.5
20260502193046 48 229 6.0 16.0 0.00 0.01 0.01 49 1016.3
20260502191501 46 165 6.0 24.0 0.00 0.01 0.01 52 1016.2
20260502190105 47 146 10.0 24.0 0.00 0.01 0.01 51 1016.0
20260502184546 47 179 10.0 22.0 0.00 0.01 0.01 51 1015.8
20260502183051 48 165 9.0 21.0 0.00 0.01 0.01 49 1015.6
20260502181604 47 211 10.0 24.0 0.00 0.01 0.01 50 1015.5
20260502163111 46 170 10.0 21.0 0.00 0.01 0.01 55 1014.1
20260502161557 46 162 10.0 21.0 0.00 0.01 0.01 55 1013.9
20260502151506 44 160 4.0 14.0 0.00 0.01 0.01 60 1013.0
20260502150106 43 204 4.0 17.0 0.00 0.01 0.01 62 1012.8
20260502123102 39 281 8.0 19.0 0.00 0.01 0.01 73 1011.2
20260502121505 38 252 7.0 11.0 0.00 0.01 0.01 75 1010.9
20260502114551 37 163 4.0 11.0 0.00 0.01 0.01 79 1010.6
20260502113041 37 152 6.0 16.0 0.00 0.01 0.01 80 1010.4
20260502111559 37 234 6.0 14.0 0.00 0.01 0.01 81 1010.2
20260502110052 37 148 5.0 18.0 0.00 0.01 0.01 81 1010.1
20260502104546 36 198 4.0 12.0 0.00 0.01 0.01 83 1009.7
20260502103101 36 229 4.0 16.0 0.00 0.01 0.01 84 1009.9
20260502101602 35 249 4.0 11.0 0.00 0.01 0.01 87 1009.4
20260502070053 38 188 5.0 14.0 0.00 0.00 0.00 82 1006.9
20260502064548 38 204 8.0 13.0 0.00 0.00 0.00 80 1006.8
20260502063059 39 176 6.0 17.0 0.00 0.00 0.00 78 1006.5
20260502061551 39 154 7.0 18.0 0.00 0.00 0.00 75 1006.1
20260502060044 40 136 6.0 17.0 0.00 0.00 0.00 74 1006.0
20260502054559 40 148 6.0 15.0 0.00 0.00 0.00 73 1006.1
20260502053048 41 165 1.0 8.0 0.00 0.00 0.00 71 1006.3
20260502051545 41 176 4.0 12.0 0.00 0.00 0.00 70 1006.4
20260502050056 41 108 2.0 5.0 0.00 0.00 0.00 65 1006.4